Location: Austin
(30.3000°N, 97.7500°W)
Time: 10:24:21
(UTC-05:00)

H-2A R/B - Pass Details

Date: 03 April 2024
Orbit: 731 x 834 km, 98.2° (Epoch: 21 April)

Event Time Altitude Azimuth Distance (km) Brightness Sun altitude
Rises 05:40:10 0° 16° (NNE) 3,163 5.7 -21.2°
Reaches altitude 10° 05:42:28 10° 20° (NNE) 2,244 4.9 -20.7°
Maximum altitude 05:47:20 62° 101° (ESE) 838 2.4 -19.7°
Drops below altitude 10° 05:52:16 10° 182° (S) 2,278 4.2 -18.7°
Sets 05:54:37 0° 185° (S) 3,216 5.0 -18.2°
Enters shadow 05:54:43 - 185° (S) 3,258 5.0 -18.2°
